Find Starlink 6365

NORAD ID: 57237 Int'l Des: 2023-094 Owner: SPXS Country: US Constellation: starlink operational
LEOCIRCULAR

現在のビュー

3D地球を読み込み中...

About Starlink 6365

Starlink 6365 (NORAD 57237) is a starlink constellation satellite (v1.5) launched Jul 7, 2023 by SPXS of US. It operates in LEO, CIRCULAR orbit with a mass of 305.00 kg.

Starlink 6365について

説明を読み込み中...

次回通過

Passes for default location (London). Set your location on the main map for personalized predictions.

高度履歴

Loading altitude history...

軌道要素

1 57237U 23094V 26166.81104205 .00000512 00000-0 28142-4 0 9993
2 57237 43.0020 196.4251 0001923 267.5748 92.4883 15.27578808162124
Epoch: Jun 15, 2026 • Age: 28 hours

現在のステータス

高度 487.1 km
速度 7.62 km/s
衛星直下点 -20.67°S, 142.5°E
打ち上げ日 Jul 7, 2023
運用期間 2.9 years
タイプ internet

技術仕様

分類 Payload
質量 305.00 kg
乾燥質量 290.00 kg
総質量 305.00 kg
長さ 0.20 m
直径 2.80 m
スパン 9.00 m
形状 Box + pan
製造者 SPXS
バスタイプ Starlink
フェーズステータス In Orbit
所有者/国 SPXS/US

Most Searched